DW8816 Weather Reports


time (UTC)temp
C
wind
direction
speed
KPH
gust
KPH
rain 1hr
cm
rain 24hr
cm
rain mn
cm
humidity
%
barometer
mb
20260508160003 17 104 3.2 6.4 0.00 0.00 0.00 60 1015.3
20260508155003 17 56 3.2 6.4 0.00 0.00 0.00 61 1015.3
20260508153003 16 89 3.2 6.4 0.00 0.00 0.00 62 1015.5
20260508152003 16 79 0.0 4.8 0.00 0.00 0.00 62 1015.6
20260508151004 16 77 1.6 4.8 0.00 0.00 0.00 63 1015.5
20260508150003 16 73 4.8 11.3 0.00 0.00 0.00 62 1015.5
20260508145003 16 111 3.2 14.5 0.00 0.00 0.00 62 1015.5
20260508144003 16 102 4.8 11.3 0.00 0.00 0.00 62 1015.6
20260508143003 16 109 3.2 14.5 0.00 0.00 0.00 61 1015.7
20260508142004 16 120 3.2 11.3 0.00 0.00 0.00 62 1015.7
20260508141003 16 112 3.2 14.5 0.00 0.00 0.00 63 1015.7
20260508140004 16 98 1.6 11.3 0.00 0.00 0.00 63 1015.7
20260508134003 16 137 3.2 11.3 0.00 0.00 0.00 65 1015.8
20260508133003 16 125 3.2 9.7 0.00 0.00 0.00 66 1015.8
20260508132003 16 141 1.6 8.0 0.00 0.00 0.00 65 1015.8
20260508131003 16 237 1.6 8.0 0.00 0.00 0.00 66 1015.9
20260508130004 16 145 1.6 11.3 0.00 0.00 0.00 66 1015.9
20260508125003 16 194 1.6 6.4 0.00 0.00 0.00 66 1016.0
20260508124003 16 210 1.6 8.0 0.00 0.00 0.00 68 1016.0
20260508123003 15 153 1.6 8.0 0.00 0.00 0.00 69 1015.9
20260508120003 16 235 1.6 6.4 0.00 0.00 0.00 64 1016.0
20260508113004 16 185 3.2 6.4 0.00 0.00 0.00 64 1015.9
20260508112003 15 126 4.8 17.7 0.00 0.00 0.00 65 1015.9
20260508111004 15 118 3.2 12.9 0.00 0.00 0.00 64 1016.0
20260508110004 15 121 3.2 14.5 0.00 0.00 0.00 64 1016.0
20260508105003 16 161 3.2 11.3 0.00 0.00 0.00 63 1015.9
20260508104003 15 127 3.2 9.7 0.00 0.00 0.00 63 1015.9
20260508102004 15 90 4.8 17.7 0.00 0.00 0.00 67 1015.9
20260508100003 15 139 3.2 14.5 0.00 0.00 0.00 66 1016.0
20260508095003 15 140 4.8 11.3 0.00 0.00 0.00 67 1016.0
20260508094003 15 122 6.4 16.1 0.00 0.00 0.00 70 1016.0
20260508092004 15 128 6.4 19.3 0.00 0.00 0.00 72 1016.0
20260508085003 13 130 6.4 14.5 0.00 0.00 0.00 78 1016.0
20260508084004 13 125 6.4 12.9 0.00 0.00 0.00 77 1016.0
20260508083004 13 121 4.8 16.1 0.00 0.00 0.00 78 1016.1
20260508082007 13 114 6.4 14.5 0.00 0.00 0.00 82 1016.0
20260508081005 12 112 4.8 14.5 0.00 0.00 0.00 84 1016.0
20260508080005 11 97 4.8 11.3 0.00 0.00 0.00 86 1016.0
20260508075003 11 111 6.4 12.9 0.00 0.00 0.00 87 1016.0
20260508074003 11 105 8.0 14.5 0.00 0.00 0.00 88 1015.9
20260508072003 10 122 4.8 11.3 0.00 0.00 0.00 90 1016.0
20260508071003 10 126 4.8 12.9 0.00 0.00 0.00 90 1016.0
20260508070004 10 121 4.8 11.3 0.00 0.00 0.00 91 1015.9
20260508065004 10 118 6.4 12.9 0.00 0.00 0.00 90 1015.9
20260508064003 10 113 8.0 16.1 0.00 0.00 0.00 91 1015.8
20260508063003 10 121 6.4 19.3 0.00 0.00 0.00 91 1015.8
20260508062004 9 102 4.8 16.1 0.00 0.00 0.00 91 1015.7
20260508061003 9 93 4.8 14.5 0.00 0.00 0.00 92 1015.7
20260508060004 8 109 3.2 14.5 0.00 0.00 0.00 93 1015.6
20260508055004 8 113 1.6 11.3 0.00 0.00 0.00 95 1015.6
20260508054004 7 0 0.0 4.8 0.00 0.00 0.00 94 1015.6
20260508053003 7 0 0.0 1.6 0.00 0.00 0.00 94 1015.6
20260508052003 7 0 0.0 0.0 0.00 0.00 0.00 94 1015.5
20260508051004 7 113 0.0 3.2 0.00 0.00 0.00 94 1015.4
20260508050003 7 0 0.0 1.6 0.00 0.00 0.00 94 1015.3
20260508045004 6 0 0.0 3.2 0.00 0.00 0.00 93 1015.3
20260508044005 6 0 0.0 1.6 0.00 0.00 0.00 93 1015.3
20260508043003 6 0 0.0 3.2 0.00 0.00 0.00 93 1015.2
20260508041004 6 0 0.0 1.6 0.00 0.00 0.00 93 1015.2
20260508040005 6 0 0.0 3.2 0.00 0.00 0.00 93 1015.3
20260508034004 6 0 0.0 3.2 0.00 0.00 0.00 92 1015.3
20260508033003 6 0 0.0 0.0 0.00 0.00 0.00 92 1015.3
20260508032003 6 0 0.0 1.6 0.00 0.00 0.00 92 1015.3
20260508030004 6 0 0.0 0.0 0.00 0.00 0.00 92 1015.3
20260508025003 6 0 0.0 0.0 0.00 0.00 0.00 92 1015.3
20260508024003 6 0 0.0 0.0 0.00 0.00 0.00 92 1015.3
20260508023004 6 0 0.0 0.0 0.00 0.00 0.00 91 1015.4
20260508022004 6 0 0.0 0.0 0.00 0.00 0.00 91 1015.3
20260508021003 7 0 0.0 0.0 0.00 0.00 0.00 91 1015.3
20260508020003 7 0 0.0 0.0 0.00 0.00 0.00 91 1015.3
20260508015003 7 0 0.0 0.0 0.00 0.00 0.00 91 1015.3
20260508014003 7 0 0.0 0.0 0.00 0.00 0.00 90 1015.3
20260508011003 7 0 0.0 0.0 0.00 0.00 0.00 89 1015.4
20260508010004 7 0 0.0 0.0 0.00 0.00 0.00 87 1015.4
20260508004004 8 0 0.0 0.0 0.00 0.00 0.00 86 1015.3
20260508003005 8 0 0.0 0.0 0.00 0.00 0.00 85 1015.4
20260508002004 8 0 0.0 0.0 0.00 0.00 0.00 84 1015.4
20260508001004 9 0 0.0 0.0 0.00 0.00 0.00 84 1015.4
20260508000004 10 0 0.0 0.0 0.00 0.00 0.00 83 1015.5
20260507235004 10 0 0.0 0.0 0.00 0.00 0.00 83 1015.5
20260507234004 10 0 0.0 0.0 0.00 0.00 0.00 82 1015.6
20260507233003 11 0 0.0 3.2 0.00 0.00 0.00 81 1015.5
20260507232004 11 0 0.0 3.2 0.00 0.00 0.00 81 1015.4
20260507231004 11 0 0.0 3.2 0.00 0.00 0.00 81 1015.5
20260507230004 11 0 0.0 4.8 0.00 0.00 0.00 80 1015.7
20260507222003 11 0 0.0 1.6 0.00 0.00 0.00 78 1015.9
20260507220004 11 109 0.0 1.6 0.00 0.00 0.00 78 1015.8
20260507215004 11 109 0.0 4.8 0.00 0.00 0.00 77 1015.8
20260507214004 11 107 1.6 6.4 0.00 0.00 0.00 78 1015.8
20260507213003 11 106 1.6 3.2 0.00 0.00 0.00 78 1015.8
20260507212004 11 116 0.0 6.4 0.00 0.00 0.00 78 1015.8
20260507211004 11 140 1.6 11.3 0.00 0.00 0.00 78 1015.7
20260507210003 12 130 0.0 9.7 0.00 0.00 0.00 78 1015.6
20260507205003 12 129 3.2 11.3 0.00 0.00 0.00 78 1015.6
20260507203004 12 135 3.2 14.5 0.00 0.00 0.00 77 1015.4
20260507202004 12 117 3.2 12.9 0.00 0.00 0.00 77 1015.3
20260507201003 12 134 1.6 11.3 0.00 0.00 0.00 77 1015.2
20260507200004 12 131 1.6 8.0 0.00 0.00 0.00 76 1015.1
20260507195004 12 128 1.6 12.9 0.00 0.00 0.00 76 1014.9
20260507194003 12 128 3.2 11.3 0.00 0.00 0.00 76 1014.8
20260507193004 12 131 4.8 12.9 0.00 0.00 0.00 76 1014.7
20260507192003 12 122 4.8 12.9 0.00 0.00 0.00 75 1014.6
20260507191004 12 131 4.8 12.9 0.00 0.00 0.00 75 1014.6
20260507190005 12 134 6.4 14.5 0.00 0.00 0.00 74 1014.6
20260507185003 12 141 4.8 16.1 0.00 0.00 0.00 74 1014.5
20260507184004 12 129 4.8 19.3 0.00 0.00 0.00 73 1014.5
20260507183003 13 120 3.2 12.9 0.00 0.00 0.00 72 1014.5
20260507182003 13 123 4.8 12.9 0.00 0.00 0.00 72 1014.4
20260507181004 13 127 4.8 16.1 0.00 0.00 0.00 71 1014.3
20260507174004 13 137 4.8 14.5 0.00 0.00 0.00 67 1014.2
20260507173003 13 131 4.8 14.5 0.00 0.00 0.00 68 1014.1
20260507172003 13 121 4.8 14.5 0.00 0.00 0.00 68 1014.1
20260507171004 14 123 3.2 14.5 0.00 0.00 0.00 67 1014.1
20260507170004 14 126 4.8 12.9 0.00 0.00 0.00 64 1014.1
20260507165004 13 124 6.4 16.1 0.00 0.00 0.00 64 1014.0
20260507164004 14 115 3.2 14.5 0.00 0.00 0.00 63 1014.1
20260507163004 14 144 3.2 11.3 0.00 0.00 0.00 62 1014.1
20260507162004 15 129 3.2 12.9 0.00 0.00 0.00 62 1014.1
20260507161005 15 123 3.2 12.9 0.00 0.00 0.00 63 1014.1